Location: G�ndlingen
(48.0142°N, 7.6396°E)
Time: 17:31:48
(UTC+00:00)

Cosmos 1980 - Pass Details

Date: 05 July 2020
Orbit: 839 x 847 km, 71.0° (Epoch: 12 August)

Event Time Altitude Azimuth Distance (km) Brightness Sun altitude
Exits shadow 21:56:25 21° 185° (S) 1,801 4.9 -16.0°
Maximum altitude 22:00:08 60° 112° (ESE) 959 3.8 -16.2°
Drops below altitude 10° 22:05:41 10° 34° (NNE) 2,466 6.6 -16.6°
Sets 22:08:10 0° 31° (NNE) 3,405 7.4 -16.7°
